TimeAKST,TemperatureF,Dew PointF,Humidity,Sea Level PressureIn,VisibilityMPH,Wind Direction,Wind SpeedMPH,Gust SpeedMPH,PrecipitationIn,Events,Conditions,WindDirDegrees,DateUTC
12:16 AM,37.4,33.8,87,29.98,10.0,East,6.9,-,N/A,,Mostly Cloudy,100,2013-02-16 09:16:00
12:36 AM,37.4,33.8,87,29.98,10.0,East,6.9,-,N/A,,Mostly Cloudy,90,2013-02-16 09:36:00
12:56 AM,37.4,33.8,87,29.98,10.0,ESE,6.9,-,N/A,,Mostly Cloudy,120,2013-02-16 09:56:00
1:16 AM,37.4,33.8,87,29.98,10.0,ESE,6.9,-,N/A,,Overcast,110,2013-02-16 10:16:00
1:36 AM,37.4,33.8,87,29.99,10.0,ESE,5.8,-,N/A,,Overcast,110,2013-02-16 10:36:00
1:56 AM,37.4,33.8,87,29.98,10.0,ESE,5.8,-,0.01,,Overcast,120,2013-02-16 10:56:00
2:16 AM,37.4,33.8,87,29.99,10.0,ESE,5.8,-,N/A,,Overcast,120,2013-02-16 11:16:00
2:36 AM,37.4,33.8,87,29.99,10.0,East,5.8,-,0.01,,Overcast,100,2013-02-16 11:36:00
2:56 AM,37.4,33.8,87,30.00,10.0,East,8.1,-,0.01,,Overcast,100,2013-02-16 11:56:00
3:16 AM,37.4,33.8,87,30.00,10.0,SE,5.8,-,N/A,,Overcast,130,2013-02-16 12:16:00
3:36 AM,37.4,33.8,87,30.00,10.0,Calm,Calm,-,N/A,,Overcast,0,2013-02-16 12:36:00
3:56 AM,37.4,33.8,87,30.01,10.0,Calm,Calm,-,N/A,,Overcast,0,2013-02-16 12:56:00
4:16 AM,35.6,33.8,93,30.01,10.0,ESE,5.8,-,N/A,,Mostly Cloudy,110,2013-02-16 13:16:00
4:36 AM,35.6,33.8,93,30.01,10.0,ESE,4.6,-,N/A,,Mostly Cloudy,110,2013-02-16 13:36:00
4:56 AM,35.6,32.0,87,30.02,10.0,East,5.8,-,N/A,,Overcast,90,2013-02-16 13:56:00
5:16 AM,33.8,30.2,87,30.01,10.0,East,5.8,-,N/A,,Mostly Cloudy,80,2013-02-16 14:16:00
5:36 AM,33.8,30.2,87,30.01,10.0,East,6.9,-,N/A,,Clear,80,2013-02-16 14:36:00
5:56 AM,32.0,28.4,87,30.02,10.0,ENE,8.1,-,N/A,,Clear,70,2013-02-16 14:56:00
6:16 AM,32.0,28.4,87,30.03,10.0,East,4.6,-,N/A,,Clear,80,2013-02-16 15:16:00
6:36 AM,32.0,28.4,87,30.03,10.0,ENE,6.9,-,N/A,,Clear,70,2013-02-16 15:36:00
6:56 AM,30.2,28.4,93,30.04,10.0,East,5.8,-,N/A,,Clear,80,2013-02-16 15:56:00
7:16 AM,30.2,28.4,93,30.05,10.0,East,6.9,-,N/A,,Clear,80,2013-02-16 16:16:00
7:36 AM,30.2,28.4,93,30.06,10.0,East,6.9,-,N/A,,Clear,80,2013-02-16 16:36:00
7:56 AM,30.2,28.4,93,30.07,10.0,ENE,5.8,-,N/A,,Clear,70,2013-02-16 16:56:00
8:16 AM,30.2,28.4,93,30.08,10.0,East,5.8,-,N/A,,Clear,80,2013-02-16 17:16:00
8:36 AM,32.0,28.4,87,30.08,10.0,East,5.8,-,N/A,,Clear,80,2013-02-16 17:36:00
8:56 AM,33.8,30.2,87,30.09,10.0,East,5.8,-,N/A,,Clear,80,2013-02-16 17:56:00
9:16 AM,33.8,32.0,93,30.09,10.0,East,4.6,-,N/A,,Clear,80,2013-02-16 18:16:00
9:36 AM,35.6,33.8,93,30.10,10.0,Calm,Calm,-,N/A,,Clear,0,2013-02-16 18:36:00
9:56 AM,37.4,33.8,87,30.11,10.0,Calm,Calm,-,N/A,,Clear,0,2013-02-16 18:56:00
10:16 AM,37.4,33.8,87,30.11,10.0,SE,4.6,-,N/A,,Clear,130,2013-02-16 19:16:00
10:36 AM,39.2,33.8,81,30.12,10.0,SE,3.5,-,N/A,,Clear,130,2013-02-16 19:36:00
10:56 AM,39.2,33.8,81,30.13,10.0,SE,3.5,-,N/A,,Clear,140,2013-02-16 19:56:00
11:16 AM,39.2,33.8,81,30.13,10.0,SE,3.5,-,N/A,,Scattered Clouds,140,2013-02-16 20:16:00
11:36 AM,39.2,33.8,81,30.14,10.0,SE,3.5,-,N/A,,Partly Cloudy,140,2013-02-16 20:36:00
11:56 AM,39.2,33.8,81,30.14,10.0,SE,4.6,-,N/A,,Mostly Cloudy,140,2013-02-16 20:56:00
12:16 PM,41.0,33.8,76,30.14,10.0,SE,3.5,-,N/A,,Overcast,140,2013-02-16 21:16:00
12:36 PM,41.0,33.8,76,30.14,10.0,SE,4.6,-,N/A,,Overcast,140,2013-02-16 21:36:00
12:56 PM,42.8,32.0,66,30.15,10.0,Calm,Calm,-,N/A,,Overcast,0,2013-02-16 21:56:00
1:16 PM,42.8,33.8,70,30.15,10.0,Calm,Calm,-,N/A,,Overcast,0,2013-02-16 22:16:00
1:36 PM,41.0,33.8,76,30.15,10.0,Calm,Calm,-,N/A,,Overcast,0,2013-02-16 22:36:00
1:56 PM,42.8,33.8,70,30.16,10.0,Calm,Calm,-,N/A,,Overcast,0,2013-02-16 22:56:00
2:16 PM,41.0,33.8,76,30.16,10.0,SE,3.5,-,N/A,,Overcast,140,2013-02-16 23:16:00
2:36 PM,41.0,33.8,76,30.17,10.0,North,5.8,-,N/A,,Overcast,10,2013-02-16 23:36:00
2:56 PM,39.2,33.8,81,30.17,10.0,WNW,6.9,-,N/A,,Mostly Cloudy,290,2013-02-16 23:56:00
3:16 PM,41.0,32.0,70,30.17,10.0,WNW,5.8,-,N/A,,Overcast,300,2013-02-17 00:16:00
3:36 PM,39.2,30.2,70,30.18,10.0,West,3.5,-,N/A,,Mostly Cloudy,280,2013-02-17 00:36:00
3:56 PM,39.2,32.0,75,30.18,10.0,NW,9.2,-,N/A,,Mostly Cloudy,310,2013-02-17 00:56:00
4:16 PM,39.2,30.2,70,30.19,10.0,WNW,8.1,-,N/A,,Mostly Cloudy,300,2013-02-17 01:16:00
4:36 PM,39.2,30.2,70,30.19,10.0,WNW,6.9,-,N/A,,Mostly Cloudy,290,2013-02-17 01:36:00
4:56 PM,37.4,30.2,75,30.19,10.0,Calm,Calm,-,N/A,,Scattered Clouds,0,2013-02-17 01:56:00
5:16 PM,37.4,30.2,75,30.19,10.0,Calm,Calm,-,N/A,,Mostly Cloudy,0,2013-02-17 02:16:00
5:36 PM,35.6,28.4,75,30.19,10.0,Calm,Calm,-,N/A,,Scattered Clouds,0,2013-02-17 02:36:00
5:56 PM,33.8,28.4,81,30.20,10.0,Calm,Calm,-,N/A,,Clear,0,2013-02-17 02:56:00
6:16 PM,32.0,28.4,87,30.20,10.0,NE,5.8,-,N/A,,Clear,50,2013-02-17 03:16:00
6:36 PM,32.0,26.6,80,30.20,10.0,ENE,5.8,-,N/A,,Clear,60,2013-02-17 03:36:00
6:56 PM,30.2,26.6,86,30.20,10.0,ENE,5.8,-,N/A,,Clear,60,2013-02-17 03:56:00
7:16 PM,30.2,26.6,86,30.20,10.0,ENE,3.5,-,N/A,,Clear,60,2013-02-17 04:16:00
7:36 PM,30.2,26.6,86,30.20,10.0,ENE,8.1,-,N/A,,Scattered Clouds,60,2013-02-17 04:36:00
7:56 PM,30.2,26.6,86,30.21,10.0,ENE,8.1,-,N/A,,Partly Cloudy,60,2013-02-17 04:56:00
8:16 PM,30.2,26.6,86,30.21,10.0,ENE,8.1,-,N/A,,Clear,60,2013-02-17 05:16:00
8:36 PM,30.2,26.6,86,30.22,10.0,ENE,4.6,-,N/A,,Partly Cloudy,70,2013-02-17 05:36:00
8:56 PM,30.2,26.6,86,30.22,10.0,ENE,5.8,-,N/A,,Partly Cloudy,70,2013-02-17 05:56:00
9:16 PM,28.4,26.6,93,30.22,10.0,ENE,5.8,-,N/A,,Clear,70,2013-02-17 06:16:00
9:36 PM,28.4,26.6,93,30.22,10.0,ENE,6.9,-,N/A,,Clear,70,2013-02-17 06:36:00
9:56 PM,28.4,26.6,93,30.22,10.0,East,8.1,-,N/A,,Clear,80,2013-02-17 06:56:00
10:16 PM,28.4,26.6,93,30.22,10.0,ENE,9.2,-,N/A,,Clear,70,2013-02-17 07:16:00
10:36 PM,28.4,26.6,93,30.21,10.0,East,9.2,-,N/A,,Clear,80,2013-02-17 07:36:00
10:56 PM,28.4,26.6,93,30.22,10.0,East,4.6,-,N/A,,Clear,80,2013-02-17 07:56:00
11:16 PM,28.4,24.8,86,30.21,10.0,East,9.2,-,N/A,,Clear,80,2013-02-17 08:16:00
11:36 PM,28.4,24.8,86,30.21,10.0,East,8.1,-,N/A,,Clear,80,2013-02-17 08:36:00
11:56 PM,28.4,26.6,93,30.21,10.0,East,9.2,-,N/A,,Partly Cloudy,80,2013-02-17 08:56:00